"Sample Date","Sample Time","Sample Value","Units","Flow Rate","Laser Status","Micron Size 0","Counts/Channel 0","Micron Size 1","Counts/Channel 1","Micron Size 2","Counts/Channel 2","Micron Size 3","Counts/Channel 3","Micron Size 4","Counts/Channel 4","Micron Size 5","Counts/Channel 5","Micron Size 6","Counts/Channel 6","Micron Size 7","Counts/Channel 7","Micron Size 8","Counts/Channel 8","Micron Size 9","Counts/Channel 9","Micron Size 10","Counts/Channel 10","Micron Size 11","Counts/Channel 11","Micron Size 12","Counts/Channel 12","Micron Size 13","Counts/Channel 13","Micron Size 14","Counts/Channel 14","Micron Size 15","Counts/Channel 15","Micron Size 16","Counts/Channel 16","Micron Size 17","Counts/Channel 17","Micron Size 18","Counts/Channel 18","Micron Size 19","Counts/Channel 19","Micron Size 20","Counts/Channel 20","Micron Size 21","Counts/Channel 21","Micron Size 22","Counts/Channel 22","Micron Size 23","Counts/Channel 23","Micron Size 24","Counts/Channel 24","Micron Size 25","Counts/Channel 25","Micron Size 26","Counts/Channel 26","Micron Size 27","Counts/Channel 27","Micron Size 28","Counts/Channel 28","Micron Size 29","Counts/Channel 29","Micron Size 30","Counts/Channel 30","Micron Size 31","Counts/Channel 31"
"03/02/08","04:00:04",18984.000,"cc",28366.492,1,0.100,17312.000,0.200,635.000,0.300,353.000,0.500,468.000,1.000,216.000,5.000,0
"03/02/08","04:00:10",19030.000,"cc",28290.240,1,0.100,17340.000,0.200,601.000,0.300,393.000,0.500,452.000,1.000,244.000,5.000,0
"03/02/08","04:00:16",19234.000,"cc",28296.430,1,0.100,17613.000,0.200,626.000,0.300,354.000,0.500,435.000,1.000,206.000,5.000,0
"03/02/08","04:00:22",19242.000,"cc",28308.627,1,0.100,17556.000,0.200,590.000,0.300,384.000,0.500,492.000,1.000,220.000,5.000,0
"03/02/08","04:00:28",19100.000,"cc",28311.805,1,0.100,17375.000,0.200,605.000,0.300,389.000,0.500,490.000,1.000,241.000,5.000,0
"03/02/08","04:00:34",19163.000,"cc",28315.639,1,0.100,17497.000,0.200,604.000,0.300,344.000,0.500,488.000,1.000,230.000,5.000,0
"03/02/08","04:00:40",19335.000,"cc",28361.729,1,0.100,17551.000,0.200,623.000,0.300,416.000,0.500,520.000,1.000,225.000,5.000,0
"03/02/08","04:00:46",19090.000,"cc",28337.135,1,0.100,17487.000,0.200,542.000,0.300,353.000,0.500,469.000,1.000,239.000,5.000,0
"03/02/08","04:00:52",19099.000,"cc",28297.227,1,0.100,17416.000,0.200,600.000,0.300,362.000,0.500,484.000,1.000,237.000,5.000,0
"03/02/08","04:00:58",19181.000,"cc",28310.865,1,0.100,17504.000,0.200,612.000,0.300,351.000,0.500,488.000,1.000,226.000,5.000,0
"03/02/08","04:01:04",19268.000,"cc",28338.111,1,0.100,17551.000,0.200,612.000,0.300,372.000,0.500,476.000,1.000,257.000,5.000,0
"03/02/08","04:01:10",19039.000,"cc",28294.932,1,0.100,17281.000,0.200,622.000,0.300,373.000,0.500,524.000,1.000,239.000,5.000,0
"03/02/08","04:01:16",19147.000,"cc",28255.859,1,0.100,17400.000,0.200,682.000,0.300,375.000,0.500,476.000,1.000,214.000,5.000,0
"03/02/08","04:01:22",19094.000,"cc",28325.795,1,0.100,17371.000,0.200,605.000,0.300,395.000,0.500,487.000,1.000,236.000,5.000,0
"03/02/08","04:01:28",18954.000,"cc",28297.654,1,0.100,17266.000,0.200,628.000,0.300,356.000,0.500,468.000,1.000,236.000,5.000,0
"03/02/08","04:01:34",18942.000,"cc",28287.791,1,0.100,17319.000,0.200,569.000,0.300,370.000,0.500,470.000,1.000,214.000,5.000,0
"03/02/08","04:01:40",18929.000,"cc",28374.877,1,0.100,17224.000,0.200,652.000,0.300,355.000,0.500,474.000,1.000,224.000,5.000,0
"03/02/08","04:01:46",19030.000,"cc",28320.436,1,0.100,17311.000,0.200,631.000,0.300,352.000,0.500,491.000,1.000,245.000,5.000,0
"03/02/08","04:01:52",18679.000,"cc",28338.748,1,0.100,17031.000,0.200,572.000,0.300,332.000,0.500,505.000,1.000,239.000,5.000,0
"03/02/08","04:01:58",18835.000,"cc",28340.047,1,0.100,17238.000,0.200,586.000,0.300,358.000,0.500,421.000,1.000,232.000,5.000,0
"03/02/08","04:02:04",18956.000,"cc",28342.426,1,0.100,17215.000,0.200,598.000,0.300,392.000,0.500,524.000,1.000,227.000,5.000,0
"03/02/08","04:02:10",18622.000,"cc",28320.244,1,0.100,16981.000,0.200,608.000,0.300,350.000,0.500,447.000,1.000,236.000,5.000,0
"03/02/08","04:02:16",18767.000,"cc",28263.836,1,0.100,17085.000,0.200,601.000,0.300,339.000,0.500,497.000,1.000,245.000,5.000,0
"03/02/08","04:02:22",18698.000,"cc",28304.955,1,0.100,16991.000,0.200,587.000,0.300,364.000,0.500,521.000,1.000,235.000,5.000,0
"03/02/08","04:02:28",18925.000,"cc",28308.256,1,0.100,17279.000,0.200,585.000,0.300,341.000,0.500,482.000,1.000,238.000,5.000,0
"03/02/08","04:02:34",18752.000,"cc",28314.147,1,0.100,17121.000,0.200,594.000,0.300,359.000,0.500,470.000,1.000,208.000,5.000,0
"03/02/08","04:02:40",18764.000,"cc",28316.563,1,0.100,17064.000,0.200,590.000,0.300,381.000,0.500,501.000,1.000,228.000,5.000,0
"03/02/08","04:02:46",18653.000,"cc",28314.887,1,0.100,17014.000,0.200,582.000,0.300,357.000,0.500,474.000,1.000,226.000,5.000,0
"03/02/08","04:02:52",18829.000,"cc",28295.359,1,0.100,17159.000,0.200,586.000,0.300,358.000,0.500,482.000,1.000,244.000,5.000,0
"03/02/08","04:02:58",18793.000,"cc",28333.924,1,0.100,17008.000,0.200,629.000,0.300,370.000,0.500,552.000,1.000,234.000,5.000,0
"03/02/08","04:03:04",18668.000,"cc",28384.063,1,0.100,16992.000,0.200,609.000,0.300,381.000,0.500,460.000,1.000,226.000,5.000,0
"03/02/08","04:03:10",18523.000,"cc",28298.691,1,0.100,16844.000,0.200,620.000,0.300,359.000,0.500,469.000,1.000,231.000,5.000,0
"03/02/08","04:03:16",18490.000,"cc",28258.260,1,0.100,16751.000,0.200,625.000,0.300,385.000,0.500,503.000,1.000,226.000,5.000,0
"03/02/08","04:03:22",18719.000,"cc",28272.772,1,0.100,17007.000,0.200,604.000,0.300,403.000,0.500,486.000,1.000,219.000,5.000,0
"03/02/08","04:03:28",18762.000,"cc",28327.152,1,0.100,17097.000,0.200,603.000,0.300,349.000,0.500,493.000,1.000,220.000,5.000,0
"03/02/08","04:03:34",18716.000,"cc",28357.729,1,0.100,17056.000,0.200,577.000,0.300,379.000,0.500,477.000,1.000,227.000,5.000,0
"03/02/08","04:03:40",18623.000,"cc",28292.574,1,0.100,16913.000,0.200,627.000,0.300,378.000,0.500,478.000,1.000,227.000,5.000,0
"03/02/08","04:03:46",18361.000,"cc",28307.041,1,0.100,16730.000,0.200,579.000,0.300,349.000,0.500,471.000,1.000,232.000,5.000,0
"03/02/08","04:03:52",18441.000,"cc",28383.115,1,0.100,16778.000,0.200,586.000,0.300,360.000,0.500,481.000,1.000,236.000,5.000,0
"03/02/08","04:03:58",18776.000,"cc",28313.301,1,0.100,17048.000,0.200,620.000,0.300,366.000,0.500,497.000,1.000,245.000,5.000,0
"03/02/08","04:04:04",18566.000,"cc",28305.027,1,0.100,16873.000,0.200,617.000,0.300,383.000,0.500,451.000,1.000,242.000,5.000,0
"03/02/08","04:04:10",18542.000,"cc",28297.670,1,0.100,16873.000,0.200,597.000,0.300,356.000,0.500,479.000,1.000,237.000,5.000,0
"03/02/08","04:04:16",18198.000,"cc",28415.889,1,0.100,16584.000,0.200,580.000,0.300,350.000,0.500,471.000,1.000,213.000,5.000,0
"03/02/08","04:04:22",18337.000,"cc",28292.957,1,0.100,16661.000,0.200,604.000,0.300,372.000,0.500,457.000,1.000,243.000,5.000,0
"03/02/08","04:04:28",18597.000,"cc",28277.680,1,0.100,16823.000,0.200,638.000,0.300,357.000,0.500,512.000,1.000,267.000,5.000,0
"03/02/08","04:04:34",18135.000,"cc",28336.625,1,0.100,16467.000,0.200,591.000,0.300,396.000,0.500,464.000,1.000,217.000,5.000,0
"03/02/08","04:04:40",18114.000,"cc",28340.438,1,0.100,16462.000,0.200,621.000,0.300,370.000,0.500,438.000,1.000,223.000,5.000,0
"03/02/08","04:04:46",18275.000,"cc",28272.930,1,0.100,16625.000,0.200,587.000,0.300,369.000,0.500,474.000,1.000,219.000,5.000,1.000
"03/02/08","04:04:52",18256.000,"cc",28335.898,1,0.100,16584.000,0.200,590.000,0.300,368.000,0.500,501.000,1.000,213.000,5.000,0
"03/02/08","04:04:58",18315.000,"cc",28332.520,1,0.100,16603.000,0.200,618.000,0.300,352.000,0.500,509.000,1.000,233.000,5.000,0
"03/02/08","04:05:04",18135.000,"cc",28263.578,1,0.100,16533.000,0.200,584.000,0.300,362.000,0.500,457.000,1.000,199.000,5.000,0
"03/02/08","04:05:10",18466.000,"cc",28325.816,1,0.100,16714.000,0.200,644.000,0.300,388.000,0.500,490.000,1.000,230.000,5.000,0
"03/02/08","04:05:16",18247.000,"cc",28343.174,1,0.100,16615.000,0.200,571.000,0.300,353.000,0.500,485.000,1.000,223.000,5.000,0
"03/02/08","04:05:22",18272.000,"cc",28362.969,1,0.100,16548.000,0.200,620.000,0.300,376.000,0.500,502.000,1.000,226.000,5.000,0
"03/02/08","04:05:28",18326.000,"cc",28263.066,1,0.100,16664.000,0.200,611.000,0.300,354.000,0.500,457.000,1.000,240.000,5.000,0
"03/02/08","04:05:34",18192.000,"cc",28336.666,1,0.100,16589.000,0.200,570.000,0.300,352.000,0.500,445.000,1.000,236.000,5.000,0
"03/02/08","04:05:40",18444.000,"cc",28320.496,1,0.100,16732.000,0.200,588.000,0.300,398.000,0.500,477.000,1.000,249.000,5.000,0
"03/02/08","04:05:46",18054.000,"cc",28283.182,1,0.100,16388.000,0.200,610.000,0.300,361.000,0.500,471.000,1.000,224.000,5.000,0
"03/02/08","04:05:52",18101.000,"cc",28339.848,1,0.100,16343.000,0.200,608.000,0.300,369.000,0.500,548.000,1.000,233.000,5.000,0
"03/02/08","04:05:58",17970.000,"cc",28300.975,1,0.100,16294.000,0.200,587.000,0.300,363.000,0.500,501.000,1.000,225.000,5.000,0
"03/02/08","04:06:04",18086.000,"cc",28279.629,1,0.100,16343.000,0.200,623.000,0.300,383.000,0.500,499.000,1.000,238.000,5.000,0
"03/02/08","04:06:10",18133.000,"cc",28338.838,1,0.100,16392.000,0.200,623.000,0.300,393.000,0.500,506.000,1.000,219.000,5.000,0
"03/02/08","04:06:16",17961.000,"cc",28318.842,1,0.100,16230.000,0.200,639.000,0.300,363.000,0.500,510.000,1.000,219.000,5.000,0
"03/02/08","04:06:22",18048.000,"cc",28340.016,1,0.100,16394.000,0.200,598.000,0.300,362.000,0.500,495.000,1.000,199.000,5.000,0
"03/02/08","04:06:28",18187.000,"cc",28327.525,1,0.100,16455.000,0.200,618.000,0.300,381.000,0.500,497.000,1.000,236.000,5.000,0
"03/02/08","04:06:34",17862.000,"cc",28343.428,1,0.100,16211.000,0.200,569.000,0.300,396.000,0.500,475.000,1.000,211.000,5.000,0
"03/02/08","04:06:40",17985.000,"cc",28284.262,1,0.100,16310.000,0.200,614.000,0.300,355.000,0.500,477.000,1.000,229.000,5.000,0
"03/02/08","04:06:46",17915.000,"cc",28292.969,1,0.100,16257.000,0.200,577.000,0.300,347.000,0.500,510.000,1.000,224.000,5.000,0
"03/02/08","04:06:52",17933.000,"cc",28362.449,1,0.100,16213.000,0.200,645.000,0.300,360.000,0.500,514.000,1.000,201.000,5.000,0
"03/02/08","04:06:58",17825.000,"cc",28326.533,1,0.100,16150.000,0.200,616.000,0.300,335.000,0.500,480.000,1.000,244.000,5.000,0
"03/02/08","04:07:04",17947.000,"cc",28357.865,1,0.100,16312.000,0.200,566.000,0.300,385.000,0.500,453.000,1.000,231.000,5.000,0
"03/02/08","04:07:10",18113.000,"cc",28272.910,1,0.100,16435.000,0.200,577.000,0.300,376.000,0.500,489.000,1.000,236.000,5.000,0
"03/02/08","04:07:16",17866.000,"cc",28298.102,1,0.100,16167.000,0.200,634.000,0.300,365.000,0.500,463.000,1.000,237.000,5.000,0
"03/02/08","04:07:22",17830.000,"cc",28359.547,1,0.100,16121.000,0.200,620.000,0.300,395.000,0.500,471.000,1.000,223.000,5.000,0
"03/02/08","04:07:28",17721.000,"cc",28286.344,1,0.100,16008.000,0.200,595.000,0.300,375.000,0.500,519.000,1.000,224.000,5.000,0
"03/02/08","04:07:34",17665.000,"cc",28301.986,1,0.100,16008.000,0.200,581.000,0.300,323.000,0.500,509.000,1.000,244.000,5.000,0
"03/02/08","04:07:40",17769.000,"cc",28288.066,1,0.100,16086.000,0.200,598.000,0.300,359.000,0.500,501.000,1.000,225.000,5.000,0
"03/02/08","04:07:46",17579.000,"cc",28330.076,1,0.100,15954.000,0.200,566.000,0.300,364.000,0.500,488.000,1.000,207.000,5.000,0
"03/02/08","04:07:52",17512.000,"cc",28330.272,1,0.100,15832.000,0.200,575.000,0.300,347.000,0.500,508.000,1.000,250.000,5.000,0
"03/02/08","04:07:58",17630.000,"cc",28324.393,1,0.100,15998.000,0.200,582.000,0.300,369.000,0.500,466.000,1.000,215.000,5.000,0
"03/02/08","04:08:04",17686.000,"cc",28242.887,1,0.100,15992.000,0.200,597.000,0.300,378.000,0.500,485.000,1.000,234.000,5.000,0
"03/02/08","04:08:10",17518.000,"cc",28344.648,1,0.100,15878.000,0.200,609.000,0.300,341.000,0.500,465.000,1.000,225.000,5.000,0
"03/02/08","04:08:16",17796.000,"cc",28367.096,1,0.100,16140.000,0.200,593.000,0.300,348.000,0.500,461.000,1.000,254.000,5.000,0
"03/02/08","04:08:22",17525.000,"cc",28320.195,1,0.100,15918.000,0.200,563.000,0.300,364.000,0.500,494.000,1.000,186.000,5.000,0
"03/02/08","04:08:28",17404.000,"cc",28314.574,1,0.100,15822.000,0.200,553.000,0.300,344.000,0.500,473.000,1.000,212.000,5.000,0
"03/02/08","04:08:34",17357.000,"cc",28299.496,1,0.100,15729.000,0.200,585.000,0.300,361.000,0.500,441.000,1.000,241.000,5.000,0
"03/02/08","04:08:40",17324.000,"cc",28319.156,1,0.100,15675.000,0.200,573.000,0.300,366.000,0.500,488.000,1.000,222.000,5.000,0
"03/02/08","04:08:46",17459.000,"cc",28333.272,1,0.100,15782.000,0.200,573.000,0.300,364.000,0.500,503.000,1.000,237.000,5.000,0
"03/02/08","04:08:52",17338.000,"cc",28337.916,1,0.100,15683.000,0.200,645.000,0.300,363.000,0.500,429.000,1.000,218.000,5.000,0
"03/02/08","04:08:58",17375.000,"cc",28306.352,1,0.100,15738.000,0.200,588.000,0.300,366.000,0.500,448.000,1.000,235.000,5.000,0
"03/02/08","04:09:04",17526.000,"cc",28315.943,1,0.100,15899.000,0.200,528.000,0.300,397.000,0.500,485.000,1.000,217.000,5.000,0
"03/02/08","04:09:10",17121.000,"cc",28248.690,1,0.100,15487.000,0.200,564.000,0.300,371.000,0.500,460.000,1.000,239.000,5.000,0
"03/02/08","04:09:16",17429.000,"cc",28353.834,1,0.100,15787.000,0.200,569.000,0.300,383.000,0.500,465.000,1.000,225.000,5.000,0
"03/02/08","04:09:22",17039.000,"cc",28321.404,1,0.100,15462.000,0.200,555.000,0.300,361.000,0.500,457.000,1.000,204.000,5.000,0
"03/02/08","04:09:28",17365.000,"cc",28306.299,1,0.100,15725.000,0.200,555.000,0.300,382.000,0.500,461.000,1.000,242.000,5.000,0
"03/02/08","04:09:34",17285.000,"cc",28342.742,1,0.100,15712.000,0.200,557.000,0.300,348.000,0.500,464.000,1.000,204.000,5.000,0
"03/02/08","04:09:40",17203.000,"cc",28297.553,1,0.100,15634.000,0.200,571.000,0.300,345.000,0.500,437.000,1.000,216.000,5.000,0
"03/02/08","04:09:46",17127.000,"cc",28354.404,1,0.100,15545.000,0.200,522.000,0.300,389.000,0.500,449.000,1.000,222.000,5.000,0
"03/02/08","04:09:52",17128.000,"cc",28268.121,1,0.100,15497.000,0.200,574.000,0.300,391.000,0.500,448.000,1.000,218.000,5.000,0
"03/02/08","04:09:58",17307.000,"cc",28278.627,1,0.100,15654.000,0.200,599.000,0.300,367.000,0.500,448.000,1.000,239.000,5.000,0
"03/02/08","04:10:04",16975.000,"cc",28320.912,1,0.100,15348.000,0.200,566.000,0.300,373.000,0.500,481.000,1.000,207.000,5.000,0
"03/02/08","04:10:10",17081.000,"cc",28312.859,1,0.100,15464.000,0.200,574.000,0.300,360.000,0.500,471.000,1.000,212.000,5.000,0
"03/02/08","04:10:16",17046.000,"cc",28327.666,1,0.100,15382.000,0.200,596.000,0.300,389.000,0.500,450.000,1.000,229.000,5.000,0
"03/02/08","04:10:22",17319.000,"cc",28349.033,1,0.100,15642.000,0.200,611.000,0.300,359.000,0.500,457.000,1.000,250.000,5.000,0
"03/02/08","04:10:28",17218.000,"cc",28292.057,1,0.100,15519.000,0.200,637.000,0.300,355.000,0.500,479.000,1.000,228.000,5.000,0
"03/02/08","04:10:34",16998.000,"cc",28357.809,1,0.100,15522.000,0.200,545.000,0.300,309.000,0.500,396.000,1.000,226.000,5.000,0
"03/02/08","04:10:40",17094.000,"cc",28304.242,1,0.100,15440.000,0.200,601.000,0.300,343.000,0.500,496.000,1.000,214.000,5.000,0
"03/02/08","04:10:46",17115.000,"cc",28302.148,1,0.100,15491.000,0.200,576.000,0.300,341.000,0.500,482.000,1.000,225.000,5.000,0
"03/02/08","04:10:52",17257.000,"cc",28347.615,1,0.100,15630.000,0.200,606.000,0.300,331.000,0.500,451.000,1.000,239.000,5.000,0
"03/02/08","04:10:58",17080.000,"cc",28311.043,1,0.100,15525.000,0.200,550.000,0.300,353.000,0.500,425.000,1.000,227.000,5.000,0
"03/02/08","04:11:04",17058.000,"cc",28288.633,1,0.100,15486.000,0.200,571.000,0.300,329.000,0.500,440.000,1.000,232.000,5.000,0
"03/02/08","04:11:10",17136.000,"cc",28330.531,1,0.100,15516.000,0.200,561.000,0.300,350.000,0.500,490.000,1.000,219.000,5.000,0
"03/02/08","04:11:16",17068.000,"cc",28271.258,1,0.100,15411.000,0.200,588.000,0.300,371.000,0.500,459.000,1.000,239.000,5.000,0
"03/02/08","04:11:22",16974.000,"cc",28275.172,1,0.100,15353.000,0.200,586.000,0.300,363.000,0.500,460.000,1.000,212.000,5.000,0
"03/02/08","04:11:28",16836.000,"cc",28415.160,1,0.100,15235.000,0.200,596.000,0.300,342.000,0.500,438.000,1.000,225.000,5.000,0
"03/02/08","04:11:34",16842.000,"cc",28301.098,1,0.100,15210.000,0.200,571.000,0.300,351.000,0.500,469.000,1.000,241.000,5.000,0
"03/02/08","04:11:40",16820.000,"cc",28257.166,1,0.100,15210.000,0.200,556.000,0.300,358.000,0.500,497.000,1.000,199.000,5.000,0
"03/02/08","04:11:46",16831.000,"cc",28364.481,1,0.100,15227.000,0.200,559.000,0.300,391.000,0.500,445.000,1.000,209.000,5.000,0
"03/02/08","04:11:52",17087.000,"cc",28356.416,1,0.100,15496.000,0.200,568.000,0.300,363.000,0.500,425.000,1.000,235.000,5.000,0
"03/02/08","04:11:58",16796.000,"cc",28346.832,1,0.100,15216.000,0.200,544.000,0.300,349.000,0.500,471.000,1.000,215.000,5.000,1.000
"03/02/08","04:12:04",16834.000,"cc",28299.652,1,0.100,15311.000,0.200,538.000,0.300,325.000,0.500,456.000,1.000,204.000,5.000,0
"03/02/08","04:12:10",16835.000,"cc",28335.350,1,0.100,15254.000,0.200,544.000,0.300,342.000,0.500,467.000,1.000,228.000,5.000,0
"03/02/08","04:12:16",16787.000,"cc",28277.240,1,0.100,15225.000,0.200,535.000,0.300,342.000,0.500,457.000,1.000,228.000,5.000,0
"03/02/08","04:12:22",16778.000,"cc",28269.320,1,0.100,15205.000,0.200,526.000,0.300,343.000,0.500,476.000,1.000,228.000,5.000,0
"03/02/08","04:12:28",16664.000,"cc",28370.883,1,0.100,15086.000,0.200,572.000,0.300,361.000,0.500,462.000,1.000,183.000,5.000,0
"03/02/08","04:12:34",16529.000,"cc",28327.885,1,0.100,14946.000,0.200,548.000,0.300,359.000,0.500,452.000,1.000,224.000,5.000,0
"03/02/08","04:12:40",16667.000,"cc",28352.625,1,0.100,15020.000,0.200,615.000,0.300,387.000,0.500,442.000,1.000,203.000,5.000,0
"03/02/08","04:12:46",16696.000,"cc",28251.758,1,0.100,15094.000,0.200,617.000,0.300,337.000,0.500,426.000,1.000,222.000,5.000,0
"03/02/08","04:12:52",16545.000,"cc",28346.357,1,0.100,14958.000,0.200,556.000,0.300,335.000,0.500,476.000,1.000,220.000,5.000,0
"03/02/08","04:12:58",16573.000,"cc",28354.785,1,0.100,15018.000,0.200,540.000,0.300,324.000,0.500,490.000,1.000,201.000,5.000,0
"03/02/08","04:13:04",16685.000,"cc",28310.424,1,0.100,14982.000,0.200,566.000,0.300,402.000,0.500,491.000,1.000,244.000,5.000,0
"03/02/08","04:13:10",16681.000,"cc",28279.609,1,0.100,15169.000,0.200,504.000,0.300,347.000,0.500,437.000,1.000,224.000,5.000,0
"03/02/08","04:13:16",16676.000,"cc",28365.283,1,0.100,15097.000,0.200,568.000,0.300,351.000,0.500,447.000,1.000,213.000,5.000,0
"03/02/08","04:13:22",16693.000,"cc",28323.912,1,0.100,15111.000,0.200,560.000,0.300,357.000,0.500,449.000,1.000,216.000,5.000,0
"03/02/08","04:13:28",16568.000,"cc",28327.254,1,0.100,14922.000,0.200,605.000,0.300,362.000,0.500,459.000,1.000,220.000,5.000,0
"03/02/08","04:13:34",16663.000,"cc",28307.252,1,0.100,15036.000,0.200,580.000,0.300,321.000,0.500,493.000,1.000,233.000,5.000,0
"03/02/08","04:13:40",16413.000,"cc",28298.691,1,0.100,14832.000,0.200,566.000,0.300,348.000,0.500,477.000,1.000,190.000,5.000,0
"03/02/08","04:13:46",16571.000,"cc",28312.664,1,0.100,14950.000,0.200,582.000,0.300,345.000,0.500,458.000,1.000,236.000,5.000,0
"03/02/08","04:13:52",16424.000,"cc",28326.385,1,0.100,14845.000,0.200,563.000,0.300,342.000,0.500,442.000,1.000,232.000,5.000,0
"03/02/08","04:13:58",16560.000,"cc",28307.607,1,0.100,14995.000,0.200,566.000,0.300,308.000,0.500,472.000,1.000,219.000,5.000,0
"03/02/08","04:14:04",16654.000,"cc",28275.545,1,0.100,15051.000,0.200,570.000,0.300,356.000,0.500,447.000,1.000,230.000,5.000,0
"03/02/08","04:14:10",16457.000,"cc",28351.641,1,0.100,14885.000,0.200,578.000,0.300,356.000,0.500,427.000,1.000,211.000,5.000,0
"03/02/08","04:14:16",16687.000,"cc",28273.441,1,0.100,15017.000,0.200,618.000,0.300,381.000,0.500,453.000,1.000,218.000,5.000,0
"03/02/08","04:14:22",16422.000,"cc",28299.320,1,0.100,14855.000,0.200,570.000,0.300,334.000,0.500,462.000,1.000,201.000,5.000,0
"03/02/08","04:14:28",16508.000,"cc",28391.559,1,0.100,14831.000,0.200,648.000,0.300,352.000,0.500,453.000,1.000,224.000,5.000,0
"03/02/08","04:14:34",16496.000,"cc",28327.260,1,0.100,14955.000,0.200,550.000,0.300,338.000,0.500,448.000,1.000,205.000,5.000,0
"03/02/08","04:14:40",16385.000,"cc",28382.246,1,0.100,14781.000,0.200,592.000,0.300,324.000,0.500,443.000,1.000,245.000,5.000,0
"03/02/08","04:14:46",16746.000,"cc",28251.250,1,0.100,15206.000,0.200,531.000,0.300,338.000,0.500,434.000,1.000,237.000,5.000,0
"03/02/08","04:14:52",16290.000,"cc",28328.686,1,0.100,14692.000,0.200,574.000,0.300,329.000,0.500,471.000,1.000,224.000,5.000,0
"03/02/08","04:14:58",16272.000,"cc",28335.416,1,0.100,14756.000,0.200,537.000,0.300,324.000,0.500,434.000,1.000,221.000,5.000,0
"03/02/08","04:15:04",16461.000,"cc",28249.606,1,0.100,14975.000,0.200,519.000,0.300,316.000,0.500,427.000,1.000,224.000,5.000,0
"03/02/08","04:15:10",16529.000,"cc",28318.104,1,0.100,14929.000,0.200,562.000,0.300,349.000,0.500,447.000,1.000,242.000,5.000,0
"03/02/08","04:15:16",16371.000,"cc",28342.568,1,0.100,14822.000,0.200,543.000,0.300,322.000,0.500,481.000,1.000,203.000,5.000,0
"03/02/08","04:15:22",16381.000,"cc",28279.697,1,0.100,14800.000,0.200,615.000,0.300,299.000,0.500,447.000,1.000,220.000,5.000,0
"03/02/08","04:15:28",16523.000,"cc",28334.115,1,0.100,14937.000,0.200,561.000,0.300,363.000,0.500,454.000,1.000,208.000,5.000,0
"03/02/08","04:15:34",16506.000,"cc",28303.100,1,0.100,14996.000,0.200,559.000,0.300,298.000,0.500,461.000,1.000,192.000,5.000,0
"03/02/08","04:15:40",16367.000,"cc",28326.943,1,0.100,14815.000,0.200,578.000,0.300,334.000,0.500,439.000,1.000,201.000,5.000,0
"03/02/08","04:15:46",16318.000,"cc",28327.420,1,0.100,14777.000,0.200,574.000,0.300,322.000,0.500,434.000,1.000,211.000,5.000,0
"03/02/08","04:15:52",16229.000,"cc",28301.645,1,0.100,14631.000,0.200,576.000,0.300,324.000,0.500,463.000,1.000,235.000,5.000,0
"03/02/08","04:15:58",16717.000,"cc",28377.904,1,0.100,15103.000,0.200,576.000,0.300,342.000,0.500,478.000,1.000,218.000,5.000,0
"03/02/08","04:16:04",16461.000,"cc",28252.713,1,0.100,14891.000,0.200,573.000,0.300,370.000,0.500,411.000,1.000,216.000,5.000,0
"03/02/08","04:16:10",16375.000,"cc",28293.383,1,0.100,14815.000,0.200,574.000,0.300,330.000,0.500,471.000,1.000,185.000,5.000,0
"03/02/08","04:16:16",16362.000,"cc",28281.961,1,0.100,14831.000,0.200,533.000,0.300,355.000,0.500,429.000,1.000,214.000,5.000,0
"03/02/08","04:16:22",16372.000,"cc",28374.322,1,0.100,14773.000,0.200,566.000,0.300,349.000,0.500,462.000,1.000,222.000,5.000,0
"03/02/08","04:16:28",16424.000,"cc",28346.736,1,0.100,14860.000,0.200,573.000,0.300,329.000,0.500,463.000,1.000,199.000,5.000,0
"03/02/08","04:16:34",16683.000,"cc",28282.145,1,0.100,15145.000,0.200,555.000,0.300,332.000,0.500,445.000,1.000,206.000,5.000,0
"03/02/08","04:16:40",16498.000,"cc",28326.863,1,0.100,14926.000,0.200,559.000,0.300,359.000,0.500,425.000,1.000,229.000,5.000,0
"03/02/08","04:16:46",16568.000,"cc",28325.551,1,0.100,14935.000,0.200,589.000,0.300,357.000,0.500,478.000,1.000,209.000,5.000,0
"03/02/08","04:16:52",16601.000,"cc",28329.832,1,0.100,15032.000,0.200,542.000,0.300,345.000,0.500,477.000,1.000,205.000,5.000,0
"03/02/08","04:16:58",16416.000,"cc",28356.318,1,0.100,14821.000,0.200,602.000,0.300,344.000,0.500,454.000,1.000,195.000,5.000,0
"03/02/08","04:17:04",16327.000,"cc",28264.438,1,0.100,14720.000,0.200,578.000,0.300,355.000,0.500,479.000,1.000,195.000,5.000,0
"03/02/08","04:17:10",16437.000,"cc",28309.955,1,0.100,14892.000,0.200,546.000,0.300,342.000,0.500,437.000,1.000,220.000,5.000,0
"03/02/08","04:17:16",16324.000,"cc",28291.805,1,0.100,14753.000,0.200,566.000,0.300,354.000,0.500,434.000,1.000,217.000,5.000,0
"03/02/08","04:17:22",16240.000,"cc",28329.555,1,0.100,14700.000,0.200,553.000,0.300,324.000,0.500,446.000,1.000,217.000,5.000,0